STARLINK-1793 (46694 NORAD) Tracking and Keplerian Element Data

This shows tracking and keplerian element data for the satellite.

Feedback or suggestion? Click here.




ElementValue
Catalog46694
NameSTARLINK-1793
Epoch Orbit181
Epoch Day336.91667824
Epoch Year2020
RAAN250.9835
Inclination53.0561
Eccentricity0.0001471
Argument of Perigee62.9668
Mean Anonmoly26.0793
Mean Motion15.627898
Decay Rate-0.00069304
L11 46694U 20073AA 20336.91667824 -.00069304 00000-0 -75642-3 0 9999
L22 46694 53.0561 250.9835 0001471 62.9668 26.0793 15.62789800 1816

Live tracking and technical data element details for STARLINK-1793 (NORAD 46694). STARLINK-1793 can be tracked NOW for your location showing map with azimuth and elevation plus other details from your city location.

Track the satellite on the map from your city or location and see movement details for azimuth, elevation, latitude, longitude, range, height, and movement on the map or in text.







IsCatalogInMostPopularTable: catalog: 46694, numindb: 10
Update: records affected: 1



GetName: 46694 STARLINK-1793

Hit Count: updated at: Wed, 02 Dec 2020 19:14:22 GMT